Weather Roundup
Issued by NWS Springfield, MO

Home | Current Version | Previous Version | Text Only | Print | Product List | Glossary On
Versions: 1 2 3 4 5 6 7 8 9 10 11 12 13 14 15 16 17 18 19 20 21 22 23 24 25 26 27 28 29 30 31 32 33 34 35 36 37 38 39 40 41 42 43 44 45 46 47 48 49 50
000
NZUS99 KSGF 230607
HRRSGF

HOURLY WEATHER
NATIONAL WEATHER SERVICE SPRINGFIELD MO
1200 AM CST THU NOV 23 2017

......SGF CWA......

CITY           SKY/WX    TMP DP  RH WIND       PRES   REMARKS
SPRINGFIELD    CLOUDY    31  23  72 S6        30.19F WCI  25
6HR MIN TEMP:  26; 6HR MAX TEMP:  36;

JOPLIN         CLOUDY    32  23  69 S6        30.21F WCI  26
6HR MIN TEMP:  30; 6HR MAX TEMP:  38;

WEST PLAINS    MOCLDY    30  19  63 CALM      30.21F
6HR MIN TEMP:  28; 6HR MAX TEMP:  37;

ROLLA          CLEAR     29  17  61 S7        30.19F WCI  22
6HR MIN TEMP:  28; 6HR MAX TEMP:  33;

OSAGE BEACH    PTCLDY    28  20  71 CALM      30.21F
BRANSON        CLOUDY    34  16  47 CALM      30.21F

......SURROUNDING SGF CWA......

CITY           SKY/WX    TMP DP  RH WIND       PRES   REMARKS
CHANUTE        CLOUDY    33  21  61 S7        30.19F WCI  27
PARSONS        CLOUDY    32  22  66 S3        30.21F
COFFEYVILLE    CLOUDY    33  24  69 S6        30.21F WCI  28
EMPORIA        CLEAR     31  20  63 S8        30.14F WCI  23
GROVE OK       CLOUDY    30  27  86 CALM      30.23F
ROGERS AR      CLOUDY    32  22  66 S5        30.22F WCI  27
SILOAM SPRINGS CLOUDY    29  23  78 S3        30.22F
HARRISON AR    PTCLDY    34  16  47 S5        30.20F WCI  30
NEAR YELLVILLE PTCLDY    29  21  72 CALM      30.23F

......KANSAS AND MISSOURI......

CITY           SKY/WX    TMP DP  RH WIND       PRES   REMARKS
KANSAS CTY INT CLEAR     37  20  50 SW10      30.12S WCI  30
DOWNTOWN KC    CLEAR     37  20  50 SW6       30.13F WCI  32
COLUMBIA       CLEAR     30  18  60 S8        30.18F WCI  22
SEDALIA        PTCLDY    32  24  72 S7        30.18F WCI  26
ST JOSEPH      CLEAR     35  20  54 S8        30.11F WCI  29
ST LOUIS       CLOUDY    35  20  54 S7        30.23S WCI  29
SPIRIT OF STL  CLOUDY    35  19  52 S6        30.21F WCI  30
KIRKSVILLE     CLEAR     30  18  60 S6        30.15F WCI  24
WICHITA        CLOUDY    32  22  66 S8        30.14F WCI  25
TOPEKA         PTCLDY    39  20  46 SW7       30.11F WCI  34
OLATHE         PTCLDY    35  20  54 S8        30.14F WCI  29

......TENNESSEE......

CITY           SKY/WX    TMP DP  RH WIND       PRES   REMARKS
MEMPHIS        CLEAR     33  25  72 N6        30.24R WCI  28
NASHVILLE      CLEAR     31  24  75 S3        30.20F

......ARKANSAS.......

CITY           SKY/WX    TMP DP  RH WIND       PRES   REMARKS
FAYETTEVILLE   CLOUDY    26  24  92 S3        30.22F
FT SMITH       CLOUDY    35  27  72 CALM      30.25F
LITTLE ROCK    CLOUDY    31  26  82 CALM      30.28F

......OKLAHOMA.......

CITY           SKY/WX    TMP DP  RH WIND       PRES   REMARKS
TULSA          CLOUDY    35  25  66 S6        30.23F WCI  30
PONCA CITY     CLOUDY    41  20  43 S8        30.18F
MCALESTER      CLOUDY    30  25  81 CALM      30.25F
OKLAHOMA CITY  PTCLDY    32  22  66 S8        30.20F WCI  25

......IOWA............

CITY           SKY/WX    TMP DP  RH WIND       PRES   REMARKS
DES MOINES     CLEAR     34  17  50 S10       30.03F WCI  26
QUAD CITIES    CLOUDY    34  18  52 S7        30.15F WCI  28

......ILLINOIS........

CITY           SKY/WX    TMP DP  RH WIND       PRES   REMARKS
QUINCY         CLEAR     29  20  69 SW6       30.18F WCI  23
CHICAGO        CLOUDY    32  17  54 SW9       30.16F WCI  24



USA.gov is the U.S. government's official web portal to all federal, state and local government web resources and services.